Location: Newark
(41.7300°N, 13.7500°E)
Time: 02:03:03
(UTC+00:00)

N. Korean satellite - Visible Passes

Search period start: 01 October 2020 00:00
Search period end: 11 October 2020 00:00
Orbit: 455 x 503 km, 97.2° (Epoch: 30 September)

Date Brightness Start Highest point End Pass type
(mag) Time Alt. Az. Time Alt. Az. Time Alt. Az.
01 Oct 8.0 04:18:26 10° NNE 04:21:53 42° E 04:25:14 10° S visible
02 Oct 9.5 03:53:00 10° NE 03:55:42 20° E 03:58:21 10° SE visible
04 Oct 6.9 04:33:30 10° NNE 04:37:04 70° E 04:40:33 10° S visible
05 Oct 8.7 04:07:45 10° NNE 04:10:56 30° E 04:14:04 10° SSE visible
06 Oct 9.9 03:42:39 10° ENE 03:44:42 15° E 03:46:44 10° SE visible
07 Oct 10.5 16:58:57 10° WSW 17:00:40 13° W 17:02:24 10° WNW visible
08 Oct 7.6 04:22:40 10° NNE 04:26:07 49° E 04:29:28 10° S visible
09 Oct 9.3 03:57:06 10° NE 03:59:56 22° E 04:02:41 10° SSE visible
10 Oct 10.3 03:32:52 10° ENE 03:33:38 11° E 03:34:23 10° ESE visible
